Weather History for Rome, NY

Change the Weather History Date:

Saturday, January 19, 2013

  Actual Average Record
Temperature  
Mean Temperature 36 °F -  
Max Temperature 46 °F 28 °F 46 °F (2013)
Min Temperature 26 °F 14 °F -10 °F (1982)
Degree Days  
Heating Degree Days 30    
Moisture  
Dew Point 18 °F    
Average Humidity 46    
Maximum Humidity 57    
Minimum Humidity 39    
Precipitation  
Precipitation 0.00 in - - ()
Sea Level Pressure  
Sea Level Pressure 29.97 in    
Wind  
Wind Speed 10 mph (SSE)    
Max Wind Speed 14 mph    
Max Gust Speed 22 mph    
Visibility 10 miles    
Events      
Averages and records for this station are not official NWS values.
T = Trace of Precipitation, MM = Missing Value Source: NWS Daily Summary

Daily Weather History Graph

Daily Weather History Graph

Search for Another Location

Airport:

Trip Planner

Search our weather history database for the weather conditions in past years. The results will help you decide how hot, cold, wet, or windy it might be!

Date:

Astronomy

Jan. 19, 2013 Rise Set
Actual Time 7:28 AM EST 4:57 PM EST
Civil Twilight 6:57 AM EST 5:28 PM EST
Nautical Twilight 6:22 AM EST 6:03 PM EST
Astronomical Twilight 5:48 AM EST 6:37 PM EST
Moon 11:23 AM EST (1/19) 12:57 AM EST (1/19)
Length of Visible Light 10h 31m
Length of Day
9h 28m
First Quarter, 57% of the Moon is Illuminated
Jan 19
First Quarter
Jan 26
Full
Feb 3
Last Quarter
Feb 10
New
Feb 17
First Quarter

Hourly Weather History & Observations

Time (EST) Temp. Windchill Dew Point Humidity Pressure Visibility Wind Dir Wind Speed Gust Speed Precip Events Conditions
12:53 AM 26.1 °F 15.6 °F 12.0 °F 55% 30.17 in 10.0 mi ESE 11.5 mph - N/A   Overcast
1:53 AM 28.0 °F 18.1 °F 12.9 °F 53% 30.15 in 10.0 mi ESE 11.5 mph - N/A   Overcast
2:53 AM 28.9 °F 20.4 °F 12.9 °F 51% 30.12 in 10.0 mi SE 9.2 mph - N/A   Overcast
3:53 AM 30.9 °F 21.7 °F 12.9 °F 47% 30.08 in 10.0 mi SSE 11.5 mph - N/A   Overcast
4:53 AM 33.1 °F 23.9 °F 12.0 °F 42% 30.06 in 10.0 mi South 12.7 mph - N/A   Overcast
5:53 AM 34.0 °F 25.5 °F 12.9 °F 42% 30.05 in 10.0 mi South 11.5 mph - N/A   Overcast
6:53 AM 34.0 °F 24.6 °F 12.9 °F 42% 30.04 in 10.0 mi South 13.8 mph - N/A   Overcast
7:53 AM 35.1 °F 26.9 °F 14.0 °F 42% 30.03 in 10.0 mi South 11.5 mph - N/A   Overcast
8:53 AM 36.0 °F 29.0 °F 15.1 °F 43% 30.04 in 10.0 mi South 9.2 mph - N/A   Overcast
9:53 AM 37.9 °F 30.9 °F 16.0 °F 41% 30.04 in 10.0 mi South 10.4 mph - N/A   Overcast
10:53 AM 39.0 °F 33.4 °F 16.0 °F 39% 30.03 in 10.0 mi SSW 8.1 mph - N/A   Overcast
11:53 AM 39.9 °F 35.8 °F 17.1 °F 40% 29.99 in 10.0 mi SSW 5.8 mph - N/A   Overcast
12:53 PM 42.1 °F 39.2 °F 19.0 °F 40% 29.98 in 10.0 mi SSW 4.6 mph - N/A   Overcast
1:53 PM 43.0 °F 41.3 °F 21.0 °F 42% 29.95 in 10.0 mi SSE 3.5 mph - N/A   Overcast
2:53 PM 43.0 °F 40.3 °F 24.1 °F 47% 29.93 in 10.0 mi SE 4.6 mph - N/A   Overcast
3:53 PM 42.1 °F 39.2 °F 23.0 °F 47% 29.92 in 10.0 mi ESE 4.6 mph - N/A   Overcast
4:53 PM 39.9 °F 35.1 °F 23.0 °F 51% 29.90 in 10.0 mi East 6.9 mph - N/A   Mostly Cloudy
5:53 PM 37.9 °F 33.5 °F 24.1 °F 57% 29.88 in 10.0 mi SE 5.8 mph - N/A   Overcast
6:53 PM 39.0 °F 32.8 °F 24.1 °F 55% 29.86 in 10.0 mi East 9.2 mph - N/A   Scattered Clouds
7:53 PM 42.1 °F 37.1 °F 24.1 °F 49% 29.83 in 10.0 mi East 8.1 mph - N/A   Overcast
8:53 PM 43.0 °F 40.3 °F 23.0 °F 45% 29.79 in 10.0 mi East 4.6 mph - N/A   Overcast
9:53 PM 45.0 °F 40.6 °F 21.0 °F 39% 29.77 in 10.0 mi South 8.1 mph - N/A   Overcast
10:53 PM 46.0 °F 41.0 °F 21.9 °F 39% 29.73 in 10.0 mi SSW 10.4 mph 21.9 mph N/A   Overcast